Date String (YYYY-MM-DD hh:mm:ss) UTC,Instrument flags,Ambient pressure (hPa),Sample flow (lpm),Bypass flow (lpm),Sample temperature (°C),Ambient temperature (°C),ASC tube jacket temperature (°C),LED temperature (°C),Box temperature (°C),Sample RH (%),Span deviation,Mass concentration (μg/m³),Mass concentration (μg/m³),Mass concentration (μg/m³)
DateTimeUTC,F1_M11,P_M11,Q1_M11,Q2_M11,T1_M11,T2_M11,T3_M11,T4_M11,T5_M11,U1_M11,ZSPAN_M11,X0_M11,X2_M11,X1_M11
2022-09-08 09:00:00,,0827.8,5.01,0.00,30.2,27.1,00.0,38.9,32.0,13.5,0002.1,0025.51,0018.03,0017.11
2022-09-08 09:01:00,,0827.8,4.99,0.00,30.1,27.2,00.0,38.9,31.9,13.5,0002.0,0024.79,0017.98,0017.04
2022-09-08 09:02:00,,0827.8,5.00,0.00,30.1,27.5,00.0,38.8,31.7,13.5,0002.1,0024.75,0017.97,0016.99
2022-09-08 09:03:00,,0827.7,5.01,0.00,30.0,27.8,00.0,38.8,31.7,13.5,0001.9,0024.88,0017.93,0016.94
2022-09-08 09:04:00,,0827.7,4.99,0.00,30.0,28.0,00.0,38.8,31.8,13.5,0001.8,0023.83,0017.90,0016.88
2022-09-08 09:05:00,,0827.7,5.00,0.00,30.0,28.2,00.0,38.8,31.8,13.4,0001.8,0023.37,0017.94,0016.91
2022-09-08 09:06:00,,0827.8,5.00,0.00,30.0,28.4,00.0,38.8,31.8,13.4,0001.9,0023.54,0017.99,0016.95
2022-09-08 09:07:00,,0827.7,5.01,0.00,30.0,28.6,00.0,38.8,31.8,13.5,0002.0,0023.62,0017.97,0016.95
2022-09-08 09:08:00,,0827.7,5.00,0.00,30.0,28.7,00.0,38.8,31.9,13.4,0001.6,0023.57,0018.00,0016.99
2022-09-08 09:09:00,,0827.7,5.00,0.00,30.1,28.8,00.0,38.8,31.9,13.3,0001.5,0023.47,0018.10,0017.09
2022-09-08 09:10:00,,0827.7,4.99,0.00,30.1,28.8,00.0,38.8,31.9,13.2,0001.4,0023.70,0018.22,0017.14
2022-09-08 09:11:00,,0827.7,5.01,0.00,30.1,28.9,00.0,38.8,31.9,13.2,0001.6,0023.62,0018.32,0017.17
2022-09-08 09:12:00,,0827.7,4.99,0.00,30.1,28.9,00.0,38.8,32.0,13.4,0001.7,0023.87,0018.33,0017.19
2022-09-08 09:13:00,,0827.7,5.01,0.00,30.1,29.0,00.0,38.9,32.0,13.4,0001.7,0023.89,0018.32,0017.20
2022-09-08 09:14:00,,0827.7,4.99,0.00,30.2,29.0,00.0,38.9,32.0,13.4,0001.4,0025.29,0018.34,0017.20
2022-09-08 09:15:00,,0827.7,5.01,0.00,30.2,29.1,00.0,38.9,32.0,13.3,0001.5,0025.61,0018.32,0017.21
2022-09-08 09:16:00,,0827.7,4.98,0.00,30.2,29.1,00.0,38.9,32.1,13.5,0001.7,0025.84,0018.29,0017.22
2022-09-08 09:17:00,,0827.7,5.01,0.00,30.2,29.2,00.0,38.9,32.1,13.7,0001.5,0025.51,0018.22,0017.18
2022-09-08 09:18:00,,0827.7,4.99,0.00,30.3,29.2,00.0,39.0,32.1,13.8,0001.4,0025.69,0018.20,0017.15
2022-09-08 09:19:00,,0827.7,5.00,0.00,30.3,29.3,00.0,39.0,32.2,13.8,0001.7,0026.18,0018.19,0017.13
2022-09-08 09:20:00,,0827.7,5.02,0.00,30.3,29.3,00.0,39.0,32.2,13.7,0001.8,0026.40,0018.21,0017.10
2022-09-08 09:21:00,,0827.7,4.98,0.00,30.3,28.4,00.0,39.0,32.1,13.7,0002.0,0026.06,0018.20,0017.06
2022-09-08 09:22:00,,0827.7,5.00,0.00,30.3,27.3,00.0,39.0,32.0,13.6,0002.0,0026.38,0018.08,0017.02
2022-09-08 09:23:00,,0827.7,4.99,0.00,30.2,27.2,00.0,38.9,31.9,13.6,0002.0,0026.26,0018.09,0016.99
2022-09-08 09:24:00,,0827.7,5.00,0.00,30.1,27.4,00.0,38.9,31.7,13.8,0001.9,0026.14,0018.09,0016.98
2022-09-08 09:25:00,,0827.6,5.00,0.00,30.1,27.7,00.0,38.9,31.7,13.7,0002.5,0025.13,0018.06,0016.96
2022-09-08 09:26:00,,0827.5,5.00,0.00,30.1,28.0,00.0,38.9,31.7,13.6,0002.5,0025.61,0018.07,0016.98
2022-09-08 09:27:00,,0827.5,4.99,0.00,30.1,28.2,00.0,38.9,31.8,13.6,0002.3,0025.48,0018.11,0017.01
2022-09-08 09:28:00,,0827.5,5.00,0.00,30.1,28.4,00.0,38.9,31.8,13.5,0002.4,0025.53,0018.15,0017.07
2022-09-08 09:29:00,,0827.5,5.01,0.00,30.1,28.5,00.0,38.9,31.9,13.5,0002.4,0025.20,0018.19,0017.13
2022-09-08 09:30:00,,0827.5,5.01,0.00,30.1,28.7,00.0,38.9,31.9,13.5,0002.1,0024.95,0018.26,0017.19
2022-09-08 09:31:00,,0827.5,4.98,0.00,30.1,28.8,00.0,38.9,31.9,13.5,0002.3,0025.00,0018.26,0017.23
2022-09-08 09:32:00,,0827.5,5.01,0.00,30.1,28.9,00.0,38.9,32.0,13.5,0002.4,0025.24,0018.32,0017.31
2022-09-08 09:33:00,,0827.5,5.01,0.00,30.1,28.9,00.0,38.9,32.0,13.5,0002.7,0025.18,0018.40,0017.37
2022-09-08 09:34:00,,0827.5,4.99,0.00,30.2,29.0,00.0,38.9,32.0,13.4,0002.6,0025.31,0018.43,0017.41
2022-09-08 09:35:00,,0827.5,5.01,0.00,30.2,29.0,00.0,38.9,32.0,13.3,0002.8,0026.00,0018.50,0017.49
2022-09-08 09:36:00,,0827.5,4.99,0.00,30.2,29.1,00.0,38.9,32.0,13.3,0002.6,0025.89,0018.65,0017.60
2022-09-08 09:37:00,,0827.5,5.01,0.00,30.2,29.1,00.0,39.0,32.1,13.2,0002.5,0026.18,0018.72,0017.64
2022-09-08 09:38:00,,0827.5,4.99,0.00,30.2,29.2,00.0,39.0,32.1,13.1,0002.5,0026.68,0018.77,0017.70
2022-09-08 09:39:00,,0827.5,5.01,0.00,30.3,29.2,00.0,39.0,32.1,13.1,0002.8,0028.11,0018.87,0017.78
2022-09-08 09:40:00,,0827.5,4.99,0.00,30.3,29.2,00.0,39.0,32.1,13.0,0002.8,0028.44,0018.97,0017.85
2022-09-08 09:41:00,,0827.5,5.00,0.00,30.3,28.7,00.0,39.0,32.1,13.0,0002.7,0028.40,0019.05,0017.92
2022-09-08 09:42:00,,0827.5,5.00,0.00,30.3,27.4,00.0,39.0,31.9,12.9,0002.4,0028.11,0019.12,0018.01
2022-09-08 09:43:00,,0827.5,5.00,0.00,30.2,27.1,00.0,39.0,31.9,13.0,0002.2,0028.95,0019.18,0018.08
2022-09-08 09:44:00,,0827.5,5.00,0.00,30.1,27.2,00.0,38.9,31.8,13.0,0002.2,0028.64,0019.23,0018.17
2022-09-08 09:45:00,,0827.4,5.00,0.00,30.1,27.6,00.0,38.9,31.7,13.0,0002.5,0029.29,0019.28,0018.24
2022-09-08 09:46:00,,0827.4,5.01,0.00,30.1,27.9,00.0,38.9,31.8,13.0,0002.4,0028.54,0019.30,0018.29
2022-09-08 09:47:00,,0827.4,5.00,0.00,30.0,28.1,00.0,38.9,31.8,13.0,0002.2,0028.40,0019.30,0018.32
2022-09-08 09:48:00,,0827.4,5.00,0.00,30.0,28.3,00.0,38.8,31.8,13.0,0002.1,0027.23,0019.30,0018.36
2022-09-08 09:49:00,,0827.4,4.99,0.00,30.0,28.4,00.0,38.8,31.8,13.0,0002.1,0027.35,0019.35,0018.37
2022-09-08 09:50:00,,0827.4,5.00,0.00,30.1,28.6,00.0,38.8,31.8,13.0,0001.9,0027.11,0019.35,0018.37
2022-09-08 09:51:00,,0827.4,5.00,0.00,30.1,28.7,00.0,38.8,31.9,13.1,0001.9,0027.64,0019.30,0018.38
2022-09-08 09:52:00,,0827.4,5.00,0.00,30.1,28.7,00.0,38.9,31.9,13.1,0002.0,0028.23,0019.29,0018.38
2022-09-08 09:53:00,,0827.4,4.98,0.00,30.1,28.8,00.0,38.9,31.9,13.1,0002.3,0029.24,0019.31,0018.36
2022-09-08 09:54:00,,0827.4,4.99,0.00,30.1,28.9,00.0,38.9,32.0,13.1,0002.2,0028.73,0019.27,0018.34
2022-09-08 09:55:00,,0827.4,5.01,0.00,30.1,29.0,00.0,38.9,32.0,13.0,0001.8,0028.41,0019.23,0018.33
2022-09-08 09:56:00,,0827.4,5.00,0.00,30.2,29.0,00.0,38.9,32.0,13.0,0001.7,0027.66,0019.17,0018.28
2022-09-08 09:57:00,,0827.4,4.99,0.00,30.2,29.1,00.0,38.9,32.0,12.9,0001.7,0028.11,0019.14,0018.24
2022-09-08 09:58:00,,0827.3,5.01,0.00,30.2,29.1,00.0,38.9,32.1,12.8,0001.5,0028.67,0019.12,0018.20
2022-09-08 09:59:00,,0827.3,4.99,0.00,30.2,29.1,00.0,39.0,32.1,12.8,0001.7,0028.65,0019.11,0018.18
